Location: Chimay
(50.0486°N, 4.3171°E)
Time: 07:06:28
(UTC+00:00)

Lacrosse 5 - Pass Details

Date: 08 August 2020
Orbit: 716 x 722 km, 57.0° (Epoch: 25 September)

Event Time Altitude Azimuth Distance (km) Brightness Sun altitude
Rises 21:35:42 0° 302° (WNW) 3,134 6.4 -18.0°
Reaches altitude 10° 21:38:06 10° 303° (WNW) 2,212 5.4 -18.2°
Maximum altitude 21:43:12 84° 31° (NNE) 730 1.8 -18.6°
Enters shadow 21:45:32 33° 119° (ESE) 1,199 2.5 -18.8°
